Regional Weather Roundup
Issued by NWS

Home | Current Version | Previous Version | Text Only | Print | Product List | Glossary Off
Versions: 1 2 3 4 5 6 7 8 9 10 11 12 13 14 15 16 17 18 19 20 21 22 23 24 25 26 27 28 29 30 31 32 33 34 35 36 37 38 39 40 41 42 43 44 45 46 47 48 49 50

000
ASUS43 KBIS 241810
RWRND

NORTH DAKOTA REGIONAL WEATHER ROUNDUP
NATIONAL WEATHER SERVICE BISMARCK ND
100 PM CDT THU JUL 24 2014

NOTE: "FAIR" INDICATES FEW OR NO CLOUDS BELOW 12,000 FEET WITH NO
SIGNIFICANT WEATHER AND/OR OBSTRUCTIONS TO VISIBILITY.


NDZ001>003-009>011-017-241900-
NORTHWEST NORTH DAKOTA

CITY           SKY/WX    TMP DP  RH WIND       PRES   REMARKS
WILLISTON      SUNNY     80  62  54 SE17      29.76F
6HR MIN TEMP:  64; 6HR MAX TEMP:  81;

MINOT          SUNNY     79  62  56 SE22G32   29.81F
MINOT AFB      SUNNY     78  66  66 S16       29.81F
$$

NDZ018>021-031>035-040>046-241900-
SOUTHWEST NORTH DAKOTA

CITY           SKY/WX    TMP DP  RH WIND       PRES   REMARKS
BISMARCK       CLOUDY    76  61  59 SE24G31   29.86F
6HR MIN TEMP:  64; 6HR MAX TEMP:  77; 6HR PCP:  0.01;

DICKINSON      CLOUDY    71  62  73 SE20      29.81F
GARRISON         N/A     75  64  68 SE20G29   29.83F
6HR MIN TEMP:  62; 6HR MAX TEMP:  76; 6HR PCP:  0.56;

HETTINGER ARPT SUNNY     78  64  61 SE15      29.80F
$$

NDZ004>008-012>016-024-026-027-054-241900-
NORTHEAST NORTH DAKOTA

CITY           SKY/WX    TMP DP  RH WIND       PRES   REMARKS
GRAND FORKS    LGT RAIN  72  62  71 SE18G24   29.86F
GRND FRKS AFB  CLOUDY    69  65  85 SE16      29.89F
DEVILS LAKE    CLOUDY    72  59  64 S25G39    29.83S
$$

NDZ022-023-025-028>030-036>039-047>053-241900-
SOUTHEAST NORTH DAKOTA

CITY           SKY/WX    TMP DP  RH WIND       PRES   REMARKS
FARGO          RAIN      67  60  78 SE30G41   29.85F
6HR MIN TEMP:  64; 6HR MAX TEMP:  76; 6HR PCP:  0.04;

JAMESTOWN      CLOUDY    67  61  81 SE13      29.91F
$$



USA.gov is the U.S. government's official web portal to all federal, state and local government web resources and services.